Weather History for Tucson, AZ

Change the Weather History Date:

Friday, August 3, 2012

  Actual Average Record
Temperature  
Mean Temperature 89 °F 86 °F  
Max Temperature 102 °F 97 °F 110 °F (1994)
Min Temperature 75 °F 74 °F 63 °F (1955)
Degree Days  
Heating Degree Days 0 0  
Month to date heating degree days 0 0  
Since 1 June heating degree days 0 0  
Since 1 July heating degree days 0 0  
Cooling Degree Days 24 21  
Month to date cooling degree days 69 63  
Year to date cooling degree days 2089 1842  
Since 1 June cooling degree days 1412 1340  
Growing Degree Days 38 (Base 50)    
Moisture  
Dew Point 49 °F    
Average Humidity 31    
Maximum Humidity 47    
Minimum Humidity 15    
Precipitation  
Precipitation 0.00 in 0.08 in 2.28 in (1955)
Month to date precipitation 0.00 0.26  
Year to date precipitation 5.15 5.78  
Snow  
Snow 0.00 in 0.00 in 0.00 in (2002)
Month to date snowfall 0.0 0.0  
Since 1 July snowfall 0.0 0.0  
Snow Depth 0.00 in    
Sea Level Pressure  
Sea Level Pressure 29.77 in    
Wind  
Wind Speed 4 mph (SSE)    
Max Wind Speed 10 mph    
Max Gust Speed 22 mph    
Visibility 10 miles    
Events      
T = Trace of Precipitation, MM = Missing Value Source: NWS Daily Summary

Daily Weather History Graph

Daily Weather History Graph

Search for Another Location

Airport:

Trip Planner

Search our weather history database for the weather conditions in past years. The results will help you decide how hot, cold, wet, or windy it might be!

Date:

Astronomy

Aug. 03, 2012 Rise Set
Actual Time 5:40 AM MST 7:18 PM MST
Civil Twilight 5:14 AM MST 7:45 PM MST
Nautical Twilight 4:42 AM MST 8:17 PM MST
Astronomical Twilight 4:08 AM MST 8:50 PM MST
Moon 8:11 PM MST (8/3) 7:17 AM MST (8/3)
Length of Visible Light 14h 31m
Length of Day
13h 38m
Full, 97% of the Moon is Illuminated
Aug 3
Full
Aug 9
Last Quarter
Aug 17
New
Aug 24
First Quarter
Aug 31
Full

Hourly Weather History & Observations

Time (MST) Temp. Heat Index Dew Point Humidity Pressure Visibility Wind Dir Wind Speed Gust Speed Precip Events Conditions
12:53 AM 82.9 °F - 48.0 °F 29% 29.81 in 10.0 mi East 3.5 mph - N/A   Clear
1:53 AM 81.0 °F - 48.9 °F 33% 29.80 in 10.0 mi SSE 3.5 mph - N/A   Clear
2:53 AM 78.1 °F - 50.0 °F 37% 29.80 in 10.0 mi South 3.5 mph - N/A   Clear
3:53 AM 75.9 °F - 52.0 °F 43% 29.80 in 10.0 mi SSE 8.1 mph - N/A   Clear
4:53 AM 75.0 °F - 53.1 °F 46% 29.82 in 10.0 mi SSE 5.8 mph - N/A   Clear
5:53 AM 75.0 °F - 54.0 °F 48% 29.82 in 10.0 mi SSE 4.6 mph - N/A   Clear
6:53 AM 77.0 °F - 55.0 °F 47% 29.84 in 10.0 mi SSE 5.8 mph - N/A   Clear
7:53 AM 81.0 °F 80.7 °F 55.0 °F 41% 29.85 in 10.0 mi SSE 4.6 mph - N/A   Clear
8:53 AM 86.0 °F - 52.0 °F 31% 29.84 in 10.0 mi South 4.6 mph - N/A   Clear
9:53 AM 91.9 °F - 46.9 °F 21% 29.83 in 10.0 mi Calm Calm - N/A   Clear
10:53 AM 93.0 °F - 48.0 °F 21% 29.82 in 10.0 mi South 4.6 mph - N/A   Clear
11:53 AM 96.1 °F - 45.0 °F 17% 29.79 in 10.0 mi Calm Calm - N/A   Clear
12:53 PM 98.6 °F - 46.4 °F 17% 29.93 in 10.0 mi Calm Calm - N/A   Clear
1:53 PM 100.0 °F - 45.0 °F 15% 29.74 in 10.0 mi NNW 6.9 mph - N/A   Clear
2:53 PM 100.0 °F - 44.1 °F 15% 29.73 in 10.0 mi East 5.8 mph - N/A   Clear
3:53 PM 100.9 °F - 45.0 °F 15% 29.70 in 10.0 mi Calm Calm - N/A   Clear
4:53 PM 100.9 °F - 46.0 °F 15% 29.69 in 10.0 mi Variable 5.8 mph - N/A   Clear
5:53 PM 100.0 °F - 45.0 °F 15% 29.68 in 10.0 mi NW 5.8 mph - N/A   Clear
6:53 PM 97.0 °F - 45.0 °F 17% 29.68 in 10.0 mi West 3.5 mph - N/A   Clear
7:53 PM 95.0 °F - 46.0 °F 19% 29.70 in 10.0 mi NNW 3.5 mph - N/A   Clear
8:53 PM 93.9 °F - 46.9 °F 20% 29.71 in 10.0 mi Calm Calm - N/A   Partly Cloudy
9:53 PM 91.0 °F - 52.0 °F 26% 29.73 in 10.0 mi SSE 5.8 mph - N/A   Partly Cloudy
10:53 PM 89.1 °F - 52.0 °F 28% 29.74 in 10.0 mi South 4.6 mph - N/A   Scattered Clouds
11:53 PM 86.0 °F - 52.0 °F 31% 29.75 in 10.0 mi South 4.6 mph - N/A   Clear